This demonstration page uses our WeatherBlox Daily Observations layout. Learn more.

Left ArrowRight Arrow

Hourly Observations for July 27, 2018

Temp ( °F °C ) Dew Point ( °F °C ) Humidity (%) Winds ( mph kmh ) Pressure ( in mb ) Visibility ( mi km ) Precip ( " mm )
12:51 am 00:51 Clear 83 28.3 58 14.4 43 43 SE 12 19 29.88 1012 10 16.0934 N/A
1:51 am 01:51 Mostly Clear 82 27.8 59 15 46 46 ESE 14 22 29.87 1012 10 16.0934 N/A
2:51 am 02:51 Mostly Clear 81 27.2 60 15.6 49 49 ESE 12 19 29.87 1012 10 16.0934 N/A
3:51 am 03:51 Partly Cloudy 80 26.7 61 16.1 52 52 E 9 15 29.87 1012 10 16.0934 N/A
4:51 am 04:51 Clear 78 25.6 61 16.1 56 56 E 10 17 29.88 1012 10 16.0934 N/A
5:51 am 05:51 Sunny 78 25.6 61 16.1 56 56 ESE 7 11 29.89 1012 10 16.0934 N/A
6:51 am 06:51 Sunny 79 26.1 61 16.1 54 54 SSE 6 9 29.92 1013 10 16.0934 N/A
7:51 am 07:51 Sunny 81 27.2 60 15.6 49 49 SSE 9 15 29.93 1013 10 16.0934 N/A
8:51 am 08:51 Sunny 84 28.9 59 15 43 43 SSE 8 13 29.92 1013 10 16.0934 N/A
9:51 am 09:51 Sunny 87 30.6 58 14.4 37 37 SE 10 17 29.93 1013 10 16.0934 N/A
10:51 am 10:51 Sunny 91 32.8 57 13.9 32 32 SE 8 13 29.91 1013 10 16.0934 N/A
11:51 am 11:51 Sunny 95 35 55 12.8 26 26 SSW 9 15 29.89 1012 10 16.0934 N/A
12:51 pm 12:51 Sunny 95 35 54 12.2 25 25 SSW 6 9 29.86 1011 10 16.0934 N/A
1:51 pm 13:51 Sunny 98 36.7 56 13.3 24 24 SSW 10 17 29.83 1010 10 16.0934 N/A
2:51 pm 14:51 Sunny 98 36.7 54 12.2 23 23 VRB 5 7 29.8 1009 10 16.0934 N/A
3:51 pm 15:51 Mostly Sunny 98 36.7 55 12.8 24 24 N N/A 29.77 1008 10 16.0934 N/A
4:51 pm 16:51 Sunny 99 37.2 54 12.2 22 22 SSW 7 11 29.75 1007 10 16.0934 N/A
5:51 pm 17:51 Mostly Sunny 98 36.7 53 11.7 22 22 VRB 7 11 29.75 1008 10 16.0934 N/A
6:51 pm 18:51 Mostly Sunny 96 35.6 54 12.2 24 24 SE 10 17 29.76 1008 10 16.0934 N/A
7:51 pm 19:51 Clear 94 34.4 53 11.7 25 25 SE 13 20 29.79 1009 10 16.0934 N/A
8:24 pm 20:24 Mostly Cloudy with Nearby Thunderstorms 93 34 55 13 28 28 SSE 15 24 29.71 1006 10 16.0934 N/A
8:51 pm 20:51 Cloudy with Thunderstorms 92 33.3 57 13.9 31 31 SSE 10 17 29.83 1010 10 16.0934 N/A
9:10 pm 21:10 Mostly Cloudy 91 33 55 13 30 30 SSE 13 20 29.77 1008 10 16.0934 N/A
9:51 pm 21:51 Clear 90 32.2 56 13.3 32 32 S 10 17 29.83 1010 10 16.0934 N/A
10:51 pm 22:51 Clear 89 31.7 55 12.8 31 31 SE 8 13 29.85 1011 10 16.0934 N/A
11:51 pm 23:51 Clear 86 30 58 14.4 39 39 E 13 20 29.86 1011 10 16.0934 N/A

Powered by AerisWeather